| time (UTC) | temp C | wind direction | speed KPH | gust KPH | rain 1hr cm | rain 24hr cm | rain mn cm | humidity % | barometer mb |
| 20260505200019 | 17 | 290 | 1.6 | 8.0 | 0.00 | 0.00 | 0.00 | 40 | 1007.0 |
| 20260505194522 | 17 | 296 | 3.2 | 9.7 | 0.00 | 0.00 | 0.00 | 39 | 1006.9 |
| 20260505193049 | 17 | 280 | 3.2 | 8.0 | 0.00 | 0.00 | 0.00 | 38 | 1006.7 |
| 20260505191549 | 17 | 299 | 3.2 | 11.3 | 0.00 | 0.00 | 0.00 | 36 | 1006.6 |
| 20260505190045 | 17 | 270 | 6.4 | 20.9 | 0.00 | 0.00 | 0.00 | 34 | 1006.5 |
| 20260505184551 | 18 | 277 | 3.2 | 16.1 | 0.00 | 0.00 | 0.00 | 33 | 1006.4 |
| 20260505183050 | 19 | 253 | 6.4 | 25.7 | 0.00 | 0.00 | 0.00 | 36 | 1006.3 |
| 20260505181543 | 19 | 271 | 4.8 | 12.9 | 0.00 | 0.00 | 0.00 | 35 | 1006.3 |
| 20260505180042 | 19 | 270 | 4.8 | 16.1 | 0.00 | 0.00 | 0.00 | 36 | 1006.2 |
| 20260505174542 | 20 | 252 | 6.4 | 19.3 | 0.00 | 0.00 | 0.00 | 37 | 1006.2 |
| 20260505173039 | 20 | 273 | 4.8 | 16.1 | 0.00 | 0.00 | 0.00 | 36 | 1005.9 |
| 20260505171539 | 21 | 273 | 4.8 | 12.9 | 0.00 | 0.00 | 0.00 | 35 | 1005.9 |
| 20260505170038 | 21 | 309 | 3.2 | 17.7 | 0.00 | 0.00 | 0.00 | 35 | 1005.9 |
| 20260505164508 | 21 | 270 | 6.4 | 16.1 | 0.00 | 0.00 | 0.00 | 35 | 1005.8 |
| 20260505163009 | 21 | 213 | 6.4 | 17.7 | 0.00 | 0.00 | 0.00 | 36 | 1005.7 |
| 20260505161548 | 22 | 252 | 4.8 | 12.9 | 0.00 | 0.00 | 0.00 | 37 | 1005.7 |
| 20260505153033 | 21 | 179 | 1.6 | 16.1 | 0.00 | 0.00 | 0.00 | 38 | 1005.8 |
| 20260505151530 | 21 | 176 | 4.8 | 19.3 | 0.00 | 0.00 | 0.00 | 39 | 1005.9 |
| 20260505124549 | 20 | 221 | 0.0 | 11.3 | 0.00 | 0.00 | 0.00 | 41 | 1007.0 |
| 20260505123044 | 20 | 240 | 0.0 | 12.9 | 0.00 | 0.00 | 0.00 | 41 | 1007.2 |
| 20260505121539 | 20 | 337 | 3.2 | 17.7 | 0.00 | 0.00 | 0.00 | 44 | 1007.3 |
| 20260505120048 | 19 | 305 | 6.4 | 16.1 | 0.00 | 0.00 | 0.00 | 42 | 1007.5 |
| 20260505114536 | 19 | 153 | 6.4 | 12.9 | 0.00 | 0.00 | 0.00 | 43 | 1007.5 |
| 20260505113034 | 19 | 173 | 0.0 | 9.7 | 0.00 | 0.00 | 0.00 | 40 | 1007.8 |
| 20260505111529 | 18 | 223 | 6.4 | 12.9 | 0.00 | 0.00 | 0.00 | 43 | 1007.9 |
| 20260505101517 | 17 | 330 | 1.6 | 9.7 | 0.00 | 0.00 | 0.00 | 53 | 1008.2 |
| 20260505100015 | 16 | 313 | 0.0 | 12.9 | 0.00 | 0.00 | 0.00 | 56 | 1008.3 |
| 20260505094512 | 16 | 269 | 3.2 | 8.0 | 0.00 | 0.00 | 0.00 | 61 | 1008.4 |
| 20260505093008 | 15 | 210 | 1.6 | 11.3 | 0.00 | 0.00 | 0.00 | 62 | 1008.3 |
| 20260505091505 | 15 | 191 | 3.2 | 9.7 | 0.00 | 0.00 | 0.00 | 62 | 1008.3 |
| 20260505090001 | 15 | 215 | 0.0 | 8.0 | 0.00 | 0.00 | 0.00 | 63 | 1008.5 |
| 20260505084602 | 14 | 254 | 3.2 | 11.3 | 0.00 | 0.00 | 0.00 | 64 | 1008.4 |
| 20260505083104 | 14 | 257 | 1.6 | 4.8 | 0.00 | 0.00 | 0.00 | 65 | 1008.4 |
| 20260505081554 | 13 | 254 | 1.6 | 6.4 | 0.00 | 0.00 | 0.00 | 65 | 1008.7 |
| 20260505080059 | 13 | 45 | 0.0 | 3.2 | 0.00 | 0.00 | 0.00 | 65 | 1008.8 |
| 20260505074547 | 12 | 5 | 0.0 | 0.0 | 0.00 | 0.00 | 0.00 | 68 | 1008.9 |
| 20260505073044 | 11 | 162 | 0.0 | 0.0 | 0.00 | 0.00 | 0.00 | 73 | 1009.0 |
| 20260505071538 | 11 | 117 | 0.0 | 3.2 | 0.00 | 0.00 | 0.00 | 73 | 1008.9 |
| 20260505070044 | 10 | 117 | 1.6 | 8.0 | 0.00 | 0.00 | 0.00 | 70 | 1008.9 |
| 20260505064536 | 10 | 128 | 4.8 | 9.7 | 0.00 | 0.00 | 0.00 | 72 | 1008.9 |
| 20260505063038 | 8 | 117 | 3.2 | 6.4 | 0.00 | 0.00 | 0.00 | 74 | 1008.7 |
| 20260505061532 | 8 | 124 | 4.8 | 8.0 | 0.00 | 0.00 | 0.00 | 75 | 1008.6 |
| 20260505060036 | 8 | 113 | 1.6 | 11.3 | 0.00 | 0.00 | 0.00 | 74 | 1008.5 |
| 20260505054531 | 8 | 107 | 6.4 | 11.3 | 0.00 | 0.00 | 0.00 | 74 | 1008.3 |
| 20260505053047 | 8 | 88 | 4.8 | 11.3 | 0.00 | 0.00 | 0.00 | 75 | 1008.4 |
| 20260505051627 | 8 | 118 | 3.2 | 8.0 | 0.00 | 0.00 | 0.00 | 75 | 1008.4 |
| 20260505050104 | 8 | 80 | 1.6 | 9.7 | 0.00 | 0.00 | 0.00 | 73 | 1008.3 |
| 20260505041549 | 8 | 106 | 4.8 | 11.3 | 0.00 | 0.00 | 0.00 | 73 | 1008.3 |
| 20260505040047 | 8 | 95 | 4.8 | 11.3 | 0.00 | 0.00 | 0.00 | 72 | 1008.4 |
| 20260505034559 | 8 | 105 | 3.2 | 12.9 | 0.00 | 0.00 | 0.00 | 72 | 1008.4 |
| 20260505033050 | 9 | 125 | 4.8 | 14.5 | 0.00 | 0.00 | 0.00 | 71 | 1008.4 |
| 20260505031541 | 9 | 72 | 3.2 | 14.5 | 0.00 | 0.00 | 0.00 | 71 | 1008.5 |
| 20260505030037 | 9 | 86 | 6.4 | 14.5 | 0.00 | 0.00 | 0.00 | 71 | 1008.4 |
| 20260505024537 | 9 | 94 | 4.8 | 11.3 | 0.00 | 0.00 | 0.00 | 71 | 1008.5 |
| 20260505023033 | 9 | 106 | 6.4 | 11.3 | 0.00 | 0.00 | 0.00 | 72 | 1008.6 |
| 20260505021533 | 9 | 109 | 6.4 | 14.5 | 0.00 | 0.00 | 0.00 | 72 | 1008.7 |
| 20260505020028 | 9 | 98 | 4.8 | 12.9 | 0.00 | 0.00 | 0.00 | 71 | 1008.7 |
| 20260505014527 | 10 | 120 | 3.2 | 8.0 | 0.00 | 0.00 | 0.00 | 71 | 1008.7 |
| 20260505013021 | 10 | 100 | 6.4 | 9.7 | 0.00 | 0.00 | 0.00 | 69 | 1008.7 |
| 20260505011542 | 10 | 115 | 3.2 | 11.3 | 0.00 | 0.00 | 0.00 | 68 | 1008.7 |
| 20260505010019 | 10 | 119 | 1.6 | 6.4 | 0.00 | 0.00 | 0.00 | 67 | 1008.9 |
| 20260505004514 | 11 | 78 | 0.0 | 4.8 | 0.00 | 0.00 | 0.00 | 66 | 1008.9 |
| 20260505003010 | 11 | 78 | 0.0 | 6.4 | 0.00 | 0.00 | 0.00 | 65 | 1009.0 |
| 20260505001510 | 11 | 98 | 1.6 | 9.7 | 0.00 | 0.00 | 0.00 | 64 | 1009.1 |
| 20260505000007 | 11 | 123 | 3.2 | 8.0 | 0.00 | 0.00 | 0.00 | 63 | 1009.1 |
| 20260504234506 | 12 | 86 | 0.0 | 8.0 | 0.00 | 0.00 | 0.00 | 63 | 1009.1 |
| 20260504233003 | 12 | 115 | 4.8 | 8.0 | 0.00 | 0.00 | 0.00 | 63 | 1009.1 |
| 20260504231505 | 12 | 241 | 1.6 | 8.0 | 0.00 | 0.00 | 0.00 | 61 | 1009.1 |
| 20260504230002 | 12 | 113 | 3.2 | 6.4 | 0.00 | 0.00 | 0.00 | 61 | 1009.1 |
| 20260504224508 | 12 | 115 | 4.8 | 8.0 | 0.00 | 0.00 | 0.00 | 60 | 1009.1 |
| 20260504223059 | 13 | 114 | 1.6 | 4.8 | 0.00 | 0.00 | 0.00 | 59 | 1009.1 |
| 20260504221559 | 13 | 105 | 3.2 | 9.7 | 0.00 | 0.00 | 0.00 | 57 | 1009.2 |
| 20260504220100 | 13 | 99 | 1.6 | 8.0 | 0.00 | 0.00 | 0.00 | 56 | 1009.2 |
| 20260504214607 | 14 | 137 | 1.6 | 6.4 | 0.00 | 0.00 | 0.00 | 55 | 1009.2 |
| 20260504213055 | 15 | 235 | 0.0 | 0.0 | 0.00 | 0.00 | 0.00 | 53 | 1009.2 |
| 20260504211554 | 15 | 235 | 0.0 | 4.8 | 0.00 | 0.00 | 0.00 | 52 | 1009.2 |
| 20260504210058 | 15 | 235 | 0.0 | 3.2 | 0.00 | 0.00 | 0.00 | 50 | 1009.0 |
| 20260504204554 | 15 | 258 | 1.6 | 6.4 | 0.00 | 0.00 | 0.00 | 49 | 1008.8 |
| 20260504203052 | 16 | 255 | 4.8 | 12.9 | 0.00 | 0.00 | 0.00 | 49 | 1008.6 |
| 20260504201549 | 16 | 228 | 0.0 | 8.0 | 0.00 | 0.00 | 0.00 | 49 | 1008.3 |